Погода в Жуковке

Погода в Жуковке : погода сейчас, прогноз погоды и архив. Всё, что Вы хотите узнать о погоде в Жуковке!

Хотите узнать прогноз погоды в Жуковке? Тогда Вам сюда: Погода в Жуковке

Поиск расширенной информации на нашем сайте:

Другие новости

Новости СМИ2

Главная страница сайта

Новости сайта

02.10.2013

Напоминаем, что на нашем новом сайте вы можете получить высокодетализированные прогнозы погоды по пунктам России, СНГ и мира (включающие важные для авиации метеовеличины, такие как направление и скорость ветра, видимость, явления погоды, количество и форма облачности, нижняя и верхняя граница облачности), а также ознакомиться с разнообразными материалами по авиационной метеорологии и подборкой полезных ссылок на эту тему.

Сайт Метеоцентр.Азия посвящён разработке технологий оптимизации авиаметеорологического обслуживания, включая проектирование и перспективное создание нескольких автоматизированных авиаметеорологических систем:
- система выпуска высокодетальных прогностических карт явлений погоды для нижнего воздушного пространства по России и ближнему зарубежью;
- система верификации прогнозов TAF (выпускаемых синоптиками официальных АМСГ РФ и ближнего зарубежья) и AUTOTAF (выпускаемых сайтом Метеоцентр.Азия) - выявление ошибок, онлайн-сопоставление с фактической погодой METAR, автоматическое внесение коррективов в прогнозы при резком отклонении фактической погоды от прогноза, подсчёт оправдываемости прогнозов по элементам и в целом;
- система обработки, анализа и отображения авиаметеорологической информации для применения провайдерами метеорологической информации.


Погода в Жуковке - сегодня

Время (UTC), дата Ветер
(°,м/с) 
Видим.   Явления Облачность Т
(°С)
Тd
(°С)
f(%) Тe
(°С)
Pmin
(гПа)
dP
(гПа)
Po
(мм)
O2
(г/м3)
Тmin Tmax R s Состояние
почвы
03 18.01.17 230 (ЮЗ) 11000 м    9/0 средняя 
[Ac trans]
-5.1 -7.2 85 -5  1036.9  0.3  760  313  -5.6         
06 18.01.17 280 (З) 8000 м  дымка  10/0 средняя 
[Ac und]
-5.5 -6.6 92 -5  1037.3  0.3  761  314  -5.6      19  равномерный
сухой снег
100% 
09 18.01.17 270 (З) 3800 м  слаб. ливневой снег  8/3 600 м кучево-дожд., средняя 
[Cb cap|Ac trans]
-4.6 -6.6 86 -4  1037.6  0.3  761  313           
12 18.01.17 250 (З) 13000 м  {ливн. осадки}  3/0 средняя 
[Ac trans]
-3.3 -7.2 74 -4  1038.2  0.7  761  311           
15 18.01.17 320 (СЗ) 7000 м  дымка  10/10 420 м кучево-дожд. 
[Cb cap]
-6.1 -6.9 94 -8  1038.6  0.2  762  315      0.0     
18 18.01.17 300 (СЗ) 7000 м  дымка  10/10 420 м кучево-дожд. 
[Cb cap]
-6.8 -7.7 93 -8  1039.6  0.9  762  316    -3.3  0.0     
21 18.01.17 260 (З) 8000 м  дымка  10/10 540 м 
[Sc]
-7.3 -8.6 90 -9  1038.9  -0.7  762  316           
00 19.01.17 270 (З) 11000 м    10/10 720 м 
[Sc]
-6.1 -8.4 84 -9  1037.9  -0.9  761  315           
03 19.01.17 260 (З) 11000 м    8/6 600 м средняя 
[Sc|Ac trans]
-6.4 -8.8 83 -9  1036.9  -0.9  760  315  -7.4         
09 19.01.17 260 (З) 3{10}  15000 м    4/0 верхняя 
[Cc]
-5.3 -9.9 70 -8  1034.6  -0.4  759  313           
12 19.01.17 240 (ЮЗ) 15000 м    6/0 средняя, верхняя 
[Ac trans|Cc]
-5.4 -10 70 -9  1032.1  -2.5  757  312           
15 19.01.17 270 (З) 14000 м    10/10 600 м 
[Sc]
-4.8 -9.2 71 -7  1030.2  -1.8  755  311           
18 19.01.17 250 (З) 3800 м  слаб. ливневой снег  10/10 420 м кучево-дожд. 
[Cb cap]
-6 -8.3 84 -9  1028.3  -2  754  311    -4.8  0.0     
00 20.01.17 250 (З) 11000 м  {ливн. осадки}  10/10 420 м кучево-дожд. 
[Cb cap]
-6.3 -8.6 84 -9  1027.7  -0.2  754  312           
03 20.01.17 280 (З) 11000 м    10/10 420 м кучево-дожд. 
[Cb cap]
-5.7 -7.9 84 -9  1023.5  -4  751  310  -6.6    0.0     
06 20.01.17 270 (З) 9000 м  дымка  10/10 400 м кучево-дожд. 
[Cb cap]
-4.9 -6.6 88 -8  1021  -2.4  749  308  -6.6    0.0  19  равномерный
сухой снег
100% 
09 20.01.17 270 (З) 9000 м  дымка{ливн. осадки}  10/4 600 м кучево-дожд., средняя 
[Cb cap|Ac und]
-3.3 -5 88 -6  1021.1  0.3  749  306           
12 20.01.17 270 (З) 8000 м  дымка{ливн. осадки}  10/3 300 м средняя 
[Cu Sc|Ac und]
-1.3 -3.3 86 -3  1020.2  -0.7  748  303           
15 20.01.17 280 (З) 10 км  дымка  10/0 средняя 
[Ac und]
-0.7 -2.9 85 -3  1019.4  -0.8  748  302      0.0     
18 20.01.17 280 (З) 9000 м  дымка  8/3 600 м кучево-дожд., средняя 
[Cb cap|Ac trans]
-0.9 -2.8 87 -2  1019.9  0.6  748  303    -0.7  0.0     
21 20.01.17 270 (З) 8000 м  дымка  8/8 420 м кучево-дожд. 
[Cb cap]
-0.8 -2.7 87 -2  1018.7  -1.2  747  302           
00 21.01.17 230 (ЮЗ) 2100 м  слаб. ливневой снег  10/10 240 м кучево-дожд. 
[Cb cap]
-1.1 -1.5 97 -3  1017.1  -1.7  746  302           
03 21.01.17 270 (З) 2400 м  слаб. ливневой снег  10/10 420 м кучево-дожд. 
[Cb cap]
-1.2 -1.6 97 -3  1014.9  -2.1  745  301  -1.3       
06 21.01.17 280 (З) 3500 м  слаб. ливневой снег  10/10 480 м кучево-дожд. 
[Cb cap]
+0.1 -0.5 96 -2  1014.6  -0.2  744  300  -1.3    20  равномерный
мокрый или
старый снег
100% 
09 21.01.17 300 (СЗ) 9000 м  в посл. час ливневой снег  8/4 600 м кучево-дожд., средняя 
[Cb cap|Ac trans]
+1.2 -0.2 90 -1  1015.2  0.7  745  299           
Время (UTC), дата Ветер
(°,м/с) 
Видим.   Явления Облачность Т
(°С)
Тd
(°С)
f(%) Тe
(°С)
Pmin
(гПа)
dP
(гПа)
Po
(мм)
O2
(г/м3)
Тmin Tmax R s Состояние
почвы

Для получения пояснительной информации подведите курсор к названию столбца.

ПОГОДА в Жуковке - архив

Всё, что Вы хотите узнать о погоде в Жуковке - удобно и подробно!

Выберите нужную дату (начиная с 1 января 2015* года) и нажмите кнопку "Найти".
Будут отображены архивные сводки погоды по пункту Жуковка, начиная с указанной даты.


Отображать данные в формате CSV (для использования в таблицах Excel)


Внимание! Наш архив погоды предназначен исключительно для личного некоммерческого использования в познавательных целях. Если Вам необходимы официальные справки о состоянии погоды (для производственных, юридических, коммерческих и т.п. целей), обращайтесь в органы Росгидромета.

*Примечание: данная дата относится к архиву по метеостанциям СССР (Россия, СНГ, Балтия).
Архив по метеостанциям Зарубежной Европы и Азии (кроме Китая) хранится 10 дней, по другим регионам земного шара (Китай, Африка, Америка, Австралия, Океания) - 1 день.

Жуковка - район местоположения метеостанции


Название, широта, долгота, высота метеостанции:
Жуковка 53.5°ш. 33.8°д. 177 м над ур. моря [Российская Федерация]

Дополнительная информация

В oтличие oт бoльшинства пoгoдных сайтoв мы публикуем пoдрoбную метеoинфoрмацию в детальнoм прoфессиoнальнoм фoрмате.

Характеристики температуры и влажнoсти вoздуха измеряются на высoте 2 м в тени вдали oт зданий и деревьев.
Скoрoсть ветра измеряется на высoте 10 м (на урoвне рoста челoвека скoрoсть ветра ниже в 1.5-2 раза). Если метеoстанция нахoдится в гoрoде или в лесу, тo скoрoсть ветра занижена на 2-4 м/с пo сравнению с oткрытым местoм. Скoрoсть ветра над акватoриями крупных рек и oзёр, а также на вершинах хoлмoв на 2-5 м/с выше, чем в oбычных услoвиях.
Атмoсфернoе давление в разных тoчках местнoсти мoжет значительнo oтличаться oт давления на метеoстанции, в зависимoсти oт услoвий рельефа (при пoдъёме на 10 м давление пoнижается примернo на 1 мм рт.ст.).